Monument Pass, CO

10:02 AM MDT on October 17, 2019 (GMT -0600)
Monument Pass

Weather History for KMNH - September, 2019

Change the Weather History Date:

Tuesday, September 17, 2019

  Actual Average Record
Temperature  
Mean Temperature 66 °F -  
Max Temperature 81 °F - 82 °F (2010)
Min Temperature 52 °F - 28 °F (2006)
Degree Days  
Heating Degree Days 0    
Month to date heating degree days 34  
Cooling Degree Days 2    
Month to date cooling degree days 31  
Growing Degree Days 16 (Base 50)    
Moisture  
Dew Point 35 °F    
Average Humidity 34    
Maximum Humidity 63    
Minimum Humidity 17    
Precipitation  
Precipitation 0.00 in - 0.05 in (2017)
Snow  
Snow 0.00 in - - ()
Snow Depth 0.00 in    
Sea Level Pressure  
Sea Level Pressure 30.10 in    
Wind  
Wind Speed 10 mph ()    
Max Wind Speed 23 mph    
Max Gust Speed 31 mph    
Visibility 10.0 miles    
Events      
T = Trace of Precipitation, MM = Missing Value Source: Averaged Metar Reports

Daily Weather History Graph

Daily Weather History Graph

Search for Another Location

Airport or City:

Astronomy

Sep. 17, 2019 Rise Set
Actual Time 6:41 AM MDT 7:03 PM MDT
Civil Twilight 6:14 AM MDT 7:30 PM MDT
Nautical Twilight 5:43 AM MDT 8:02 PM MDT
Astronomical Twilight 5:10 AM MDT 8:34 PM MDT
Moon 9:09 PM MDT 9:47 AM MDT
Length of Visible Light 13h 16m
Length of Day
12h 22m
Waning Gibbous, 89% of the Moon is Illuminated
Sep 17
Waning Gibbous
Sep 21
Last Quarter
Sep 28
New
Oct 5
First Quarter
Oct 13
Full

Hourly Weather History & Observations

Time (MDT) Temp. Dew Point Humidity Pressure Visibility Wind Dir Wind Speed Gust Speed Precip Events Conditions
12:06 AM 55.4 °F 42.8 °F 63% 30.09 in 10.0 mi SW 8.1 mph - N/A   Clear
12:24 AM 57.2 °F 42.8 °F 59% 30.08 in 10.0 mi SSW 8.1 mph - N/A   Clear
12:47 AM 55.4 °F 41.0 °F 58% 30.08 in 10.0 mi SSW 9.2 mph - N/A   Clear
1:06 AM 59.0 °F 41.0 °F 51% 30.09 in 10.0 mi SW 10.4 mph - N/A   Clear
1:24 AM 55.4 °F 41.0 °F 58% 30.09 in 10.0 mi SW 11.5 mph - N/A   Clear
1:42 AM 59.0 °F 37.4 °F 45% 30.09 in 10.0 mi SSW 9.2 mph - N/A   Clear
2:06 AM 55.4 °F 37.4 °F 51% 30.09 in 10.0 mi SSW 6.9 mph - N/A   Clear
2:24 AM 59.0 °F 37.4 °F 45% 30.08 in 10.0 mi SW 9.2 mph - N/A   Clear
2:42 AM 60.8 °F 35.6 °F 39% 30.08 in 10.0 mi SW 10.4 mph - N/A   Clear
3:06 AM 60.8 °F 35.6 °F 39% 30.08 in 10.0 mi SW 9.2 mph - N/A   Clear
3:24 AM 59.0 °F 35.6 °F 42% 30.08 in 10.0 mi SW 10.4 mph - N/A   Clear
3:42 AM 62.6 °F 35.6 °F 37% 30.08 in 10.0 mi SW 13.8 mph - N/A   Clear
4:06 AM 60.8 °F 35.6 °F 39% 30.09 in 10.0 mi SW 12.7 mph - N/A   Clear
4:24 AM 60.8 °F 35.6 °F 39% 30.09 in 10.0 mi SW 10.4 mph - N/A   Clear
4:42 AM 60.8 °F 35.6 °F 39% 30.09 in 10.0 mi SW 10.4 mph - N/A   Clear
5:06 AM 60.8 °F 35.6 °F 39% 30.09 in 10.0 mi SW 9.2 mph - N/A   Clear
5:42 AM 60.8 °F 35.6 °F 39% 30.09 in 10.0 mi WSW 10.4 mph - N/A   Clear
6:06 AM 59.0 °F 33.8 °F 39% 30.09 in 10.0 mi WSW 9.2 mph - N/A   Clear
6:24 AM 55.4 °F 33.8 °F 44% 30.10 in 10.0 mi SW 9.2 mph - N/A   Clear
6:42 AM 55.4 °F 35.6 °F 47% 30.10 in 10.0 mi WSW 8.1 mph - N/A   Clear
7:06 AM 59.0 °F 35.6 °F 42% 30.10 in 10.0 mi WSW 9.2 mph - N/A   Clear
7:24 AM 60.8 °F 35.6 °F 39% 30.10 in 10.0 mi WSW 8.1 mph - N/A   Clear
7:42 AM 60.8 °F 35.6 °F 39% 30.10 in 10.0 mi SW 8.1 mph - N/A   Clear
8:06 AM 60.8 °F 37.4 °F 42% 30.11 in 10.0 mi WSW 6.9 mph - N/A   Clear
8:24 AM 60.8 °F 37.4 °F 42% 30.12 in 10.0 mi West 8.1 mph - N/A   Clear
8:42 AM 62.6 °F 37.4 °F 39% 30.12 in 10.0 mi WSW 8.1 mph - N/A   Clear
9:06 AM 64.4 °F 35.6 °F 34% 30.13 in 10.0 mi WSW 12.7 mph - N/A   Clear
9:24 AM 66.2 °F 37.4 °F 35% 30.13 in 10.0 mi WSW 15.0 mph - N/A   Clear
9:41 AM 68.0 °F 37.4 °F 33% 30.13 in 10.0 mi WSW 12.7 mph - N/A   Clear
10:46 AM - - N/A% 30.14 in - North - - N/A   Unknown
11:31 AM 73.4 °F 35.6 °F 25% 30.12 in 10.0 mi West 18.4 mph 26.5 mph N/A   Clear
11:48 AM 71.6 °F 35.6 °F 27% 30.12 in 10.0 mi WSW 19.6 mph 26.5 mph N/A   Clear
12:12 PM 71.6 °F 35.6 °F 27% 30.12 in 10.0 mi West 12.7 mph 20.7 mph N/A   Clear
12:30 PM 73.4 °F 35.6 °F 25% 30.11 in 10.0 mi West 12.7 mph 20.7 mph N/A   Clear
12:48 PM 75.2 °F 35.6 °F 24% 30.09 in 10.0 mi SW 16.1 mph 24.2 mph N/A   Clear
1:12 PM 77.0 °F 35.6 °F 22% 30.09 in 10.0 mi WSW 15.0 mph 21.9 mph N/A   Clear
1:30 PM 77.0 °F 33.8 °F 21% 30.09 in 10.0 mi WSW 15.0 mph 29.9 mph N/A   Clear
1:48 PM 77.0 °F 35.6 °F 22% 30.08 in 10.0 mi SW 16.1 mph 25.3 mph N/A   Clear
2:12 PM 77.0 °F 33.8 °F 21% 30.08 in 10.0 mi SSW 18.4 mph 31.1 mph N/A   Clear
2:30 PM 78.8 °F 33.8 °F 20% 30.07 in 10.0 mi SSW 19.6 mph 26.5 mph N/A   Clear
2:53 PM 77.0 °F 32.0 °F 19% 30.07 in 10.0 mi SW 12.7 mph 27.6 mph N/A   Clear
3:12 PM 78.8 °F 32.0 °F 18% 30.06 in 10.0 mi South 17.3 mph 23.0 mph N/A   Scattered Clouds
3:30 PM 80.6 °F 32.0 °F 17% 30.05 in 10.0 mi SW 23.0 mph 27.6 mph N/A   Scattered Clouds
3:48 PM 77.0 °F 32.0 °F 19% 30.06 in 10.0 mi WSW 18.4 mph 24.2 mph N/A   Scattered Clouds
4:12 PM 78.8 °F 32.0 °F 18% 30.06 in 10.0 mi SW 15.0 mph 21.9 mph N/A   Mostly Cloudy
4:30 PM 77.0 °F 33.8 °F 21% 30.05 in 10.0 mi SW 10.4 mph 21.9 mph N/A   Scattered Clouds
4:48 PM 78.8 °F 32.0 °F 18% 30.06 in 10.0 mi WSW 12.7 mph 23.0 mph N/A   Clear
5:12 PM 77.0 °F 32.0 °F 19% 30.06 in 10.0 mi West 20.7 mph 26.5 mph N/A   Clear
5:30 PM 77.0 °F 32.0 °F 19% 30.06 in 10.0 mi West 17.3 mph 27.6 mph N/A   Clear
5:48 PM 73.4 °F 32.0 °F 22% 30.07 in 10.0 mi West 20.7 mph 26.5 mph N/A   Clear
6:09 PM 73.4 °F 33.8 °F 23% 30.07 in 10.0 mi WSW 15.0 mph 24.2 mph N/A   Clear
6:33 PM 71.6 °F 32.0 °F 23% 30.08 in 10.0 mi WSW 9.2 mph - N/A   Clear
6:51 PM 68.0 °F 32.0 °F 26% 30.09 in 10.0 mi WSW 9.2 mph - N/A   Clear
7:11 PM 62.6 °F 32.0 °F 32% 30.09 in 10.0 mi WSW 10.4 mph - N/A   Clear
7:29 PM 62.6 °F 32.0 °F 32% 30.09 in 10.0 mi North - - N/A   Clear
7:53 PM 62.6 °F 32.0 °F 32% 30.10 in 10.0 mi SW 9.2 mph - N/A   Clear
8:12 PM 62.6 °F 32.0 °F 32% 30.11 in 10.0 mi SSW 5.8 mph - N/A   Clear
8:30 PM 59.0 °F 32.0 °F 36% 30.11 in 10.0 mi South 6.9 mph - N/A   Clear
8:48 PM 57.2 °F 32.0 °F 38% 30.12 in 10.0 mi South 8.1 mph - N/A   Clear
9:12 PM 60.8 °F 32.0 °F 34% 30.13 in 10.0 mi SSW 9.2 mph - N/A   Clear
9:30 PM 55.4 °F 32.0 °F 41% 30.14 in 10.0 mi South 6.9 mph - N/A   Clear
9:48 PM 59.0 °F 32.0 °F 36% 30.14 in 10.0 mi SSW 6.9 mph - N/A   Clear
10:12 PM 59.0 °F 32.0 °F 36% 30.14 in 10.0 mi SSW 6.9 mph - N/A   Clear
10:30 PM 57.2 °F 32.0 °F 38% 30.14 in 10.0 mi SW 10.4 mph - N/A   Clear
10:48 PM 59.0 °F 32.0 °F 36% 30.14 in 10.0 mi SW 8.1 mph - N/A   Clear
11:12 PM 53.6 °F 32.0 °F 44% 30.15 in 10.0 mi SSW 8.1 mph - N/A   Clear
11:30 PM 55.4 °F 32.0 °F 41% 30.15 in 10.0 mi SSW 8.1 mph - N/A   Clear
11:48 PM 57.2 °F 32.0 °F 38% 30.15 in 10.0 mi SSW 9.2 mph - N/A   Clear